Weather in Fernie

Canada     49°30′17″N   115°04′07″W
temp.,
°C
wind,
m/s
gust,
m/s
humid.,
%
clouds,
%
prec.,
mm/h
press.,
hPa
HPBL,
m
10 april, sat
sat1023:00−1sw51268100 0.0 10081206
02:00−3sw3697100 0.5 1007351
05:00−3sw31097100 2.9 10051005
08:00−4ssw41192100 2.5 10071163
11:00−1sw4763100 3.3 10051523
14:000w3454100 0.9 10071963
17:00−1w1260100 1.6 1010774
20:00−4nne1285100 0.4 101558
11 april, sun
sun1123:00−7s119990 1.4 102011
02:00−5ssw1198100 0.7 102256
05:00−5wnw1197100 1.5 1024100
08:00−4w1188100 0.3 1025393
11:00−1wsw2268100 0.7 10231182
14:00+1sw1257100 0.9 10211486
17:00−2ese2281100 2.3 1023544
20:00−5ene2196100 0.4 102726
12 april, mon
mon1223:00−6ene229398 0.5 102938
02:00−7ene229697 0.0 103143
05:00−8ene229697 0.0 103343
08:00−4ne238175 0.0 1032342
11:00−1ene3463100 0.3 10311411
14:000e4556100 0.4 10301761
17:00−1ene466091 0.8 10311521
20:00−5ene23909 0.2 103575
13 april, tue
tue1323:00−7ne249068 0.3 1036113
02:00−8ne259596 0.0 1037116
05:00−8ne2395100 0.1 103774
08:00−4ne2476100 0.0 1034514
11:00−1ne3753100 0.1 10311837
14:00+1ene4852100 0.1 10291870
17:000ene4958100 0.1 10281577
20:00−4ene248397 0.0 1031116
14 april, wed
wed1423:00−6ne249396 0.1 1031144
02:00−6ne249469 0.0 1031100
05:00−7ne2494100 0.0 1031104
08:00−3ne247469 0.0 1029554
11:00+1ene255999 0.0 10251250
14:00+3ene365994 0.0 10231300
17:00+2e366397 0.0 10221138
20:00−4ene23945 0.0 102758